Flag for Germany Weather past 2 weeks in Saalfeld/Saale, Thuringia, Germany

Now
46 °F

Light rain. Fog.


Feels Like: 41 °F
Forecast: 39 / 49 °F
Wind: 13 mph from Northeast

Location: Erfurt-Bindersleben

Current Time: Apr 27, 2015 at 8:12:16 PM

Latest Report: Apr 27, 2015 at 7:50 PM


Visibility: 3 mi

Pressure: 29.68 "Hg

Humidity: 100%

Dew point: 46 °F

Location of Saalfeld/SaaleLocation

Historic Weather in Saalfeld/Saale — Graph

°F

Saalfeld/Saale temperature yesterday

Maximum temperature yesterday: 66 °F (at 3:50 PM)
Minimum temperature yesterday: 46 °F (at 5:20 AM)
Average temperature yesterday: 55 °F

Past Weeks' High & Low Weather Summary

 TemperatureHumidityPressure
High73 °F (Apr 15, 3:50 PM)100% (Apr 23, 12:50 AM)30.42 "Hg (Apr 23, 12:50 AM)
Low28 °F (Apr 19, 6:20 AM)21% (Apr 21, 6:20 PM)29.56 "Hg (Apr 27, 4:50 AM)
Average50 °F63%30.08 "Hg
* Reported Apr 12 6:20 PM — Apr 27 6:50 PM, Saalfeld/Saale, Weather by CustomWeather, © 2015

Note: Actual official high and low records may vary slightly from our data, if they occured in-between our weather recording intervals... More about our weather records

Advertising

Saalfeld/Saale weather history for previous 24 hours

 ConditionsComfort  
Time TempWeatherWind HumidityBarometerVisibility
6:50 PM
Mon, Apr 27
48 °FLight rain. Partly sunny.14 mph94%29.68 "Hg4 mi
6:20 PM48 °FLight rain. Broken clouds.12 mph94%29.68 "HgN/A
5:50 PM48 °FLight rain. Broken clouds.10 mph94%29.68 "HgN/A
5:20 PM50 °FLight rain. Partly sunny.12 mph88%29.65 "HgN/A
4:50 PM50 °FLight rain. Partly sunny.12 mph88%29.65 "HgN/A
4:20 PM48 °FLight rain. Partly sunny.12 mph100%29.65 "HgN/A
3:50 PM50 °FLight rain. Broken clouds.14 mph94%29.65 "HgN/A
3:20 PM50 °FLight rain. Broken clouds.13 mph94%29.65 "HgN/A
2:50 PM50 °FLight rain. Partly sunny.12 mph94%29.65 "HgN/A
2:20 PM50 °FPartly sunny.13 mph94%29.65 "HgN/A
1:50 PM52 °FPartly sunny.14 mph94%29.62 "HgN/A
1:20 PM55 °FMostly cloudy.14 mph88%29.62 "HgN/A
12:50 PM55 °FPartly sunny.10 mph88%29.62 "HgN/A
12:20 PM57 °FLight rain. Broken clouds.5 mph88%29.62 "HgN/A
11:50 AM57 °FLight rain. Broken clouds.3 mph88%29.59 "HgN/A
11:20 AM55 °FLight rain. Broken clouds.2 mph94%29.59 "HgN/A
10:50 AM59 °FLight rain. Partly sunny.6 mph77%29.59 "HgN/A
10:20 AM59 °FPartly sunny.6 mph77%29.59 "HgN/A
9:50 AM57 °FLight rain. Broken clouds.7 mph88%29.59 "HgN/A
9:20 AM57 °FSunny.7 mph88%29.56 "Hg10 mi
8:50 AM55 °FSprinkles. Broken clouds.6 mph88%29.56 "HgN/A
8:20 AM55 °FSprinkles. Partly sunny.5 mph88%29.59 "HgN/A
7:50 AM55 °FPartly sunny.7 mph88%29.56 "HgN/A
7:20 AM54 °FSprinkles. Partly sunny.7 mph88%29.56 "HgN/A
6:50 AM54 °FPartly cloudy.7 mph88%29.56 "HgN/A
6:20 AM52 °FClear.7 mph88%29.56 "Hg10 mi
5:20 AM50 °FClear.3 mph94%29.56 "Hg10 mi
4:50 AM50 °FPassing clouds.1 mph94%29.56 "HgN/A
4:20 AM52 °FLight rain. Passing clouds.5 mph88%29.59 "HgN/A
3:50 AM52 °FLight rain. Passing clouds.7 mph88%29.59 "HgN/A
3:20 AM52 °FClear.5 mph88%29.59 "Hg10 mi
2:50 AM52 °FLight rain. Passing clouds.6 mph88%29.59 "HgN/A
2:20 AM54 °FClear.6 mph82%29.62 "Hg10 mi
1:50 AM52 °FClear.6 mph88%29.62 "Hg10 mi
1:20 AM52 °FClear.3 mph88%29.65 "Hg10 mi
12:50 AM52 °FClear.2 mph88%29.65 "Hg10 mi
12:20 AM54 °FClear.2 mph82%29.65 "Hg10 mi
11:50 PM
Sun, Apr 26
52 °FClear.2 mph88%29.68 "Hg10 mi
11:20 PM52 °FClear.6 mph94%29.68 "Hg10 mi
10:50 PM52 °FClear.7 mph88%29.68 "Hg10 mi
10:20 PM54 °FClear.7 mph82%29.68 "Hg10 mi
9:50 PM55 °FClear.6 mph82%29.68 "Hg10 mi
9:20 PM55 °FSunny.6 mph77%29.68 "Hg10 mi
8:50 PM55 °FSunny.6 mph82%29.68 "Hg10 mi
8:20 PM55 °FSunny.6 mph82%29.68 "Hg10 mi
Weather by CustomWeather, © 2015

See weather overviewHow to use our weather pages